Вернуться в каталог

ARIANE 2 DEB

LostHEO
NORAD 27031·DEBRIS·🇫🇷 France

Запущен Jan 27, 1989 с Guiana Space Centre

Loading…

Ближайшие Пролёты (ближайшие 24 часа)

TLE

УстаревшееSource: Space-Track

Эпоха: Oct 7, 2025, 05:16 UTC

1 27031U 89006L   25280.21977868  .00076948  00000-0  55985-1 0  9998
2 27031   7.9723 344.2755 6433661 253.1926  30.8828  3.35214818239558

Отслеживайте ARIANE 2 DEB в реальном времени с AllMySat

Download on the App Store